Time,TemperatureF,DewpointF,PressureIn,WindDirection,WindDirectionDegrees,WindSpeedMPH,WindSpeedGustMPH,Humidity,HourlyPrecipIn,Conditions,Clouds,dailyrainin,SoftwareType,DateUTC
2015-09-04 00:13:00,81.0,72.0,29.92,South,190,0.0,0.0,75,-99.99,,,-99.99,,2015-09-04 04:13:00,
2015-09-04 00:23:00,81.0,72.0,29.92,South,190,0.0,0.0,75,-99.99,,,-99.99,,2015-09-04 04:23:00,
2015-09-04 00:33:00,81.0,72.0,29.92,South,190,0.0,1.0,75,-99.99,,,-99.99,,2015-09-04 04:33:00,
2015-09-04 00:44:00,81.0,72.0,29.92,South,190,0.0,1.0,75,-99.99,,,-99.99,,2015-09-04 04:44:00,
2015-09-04 00:54:00,81.0,73.0,29.92,South,190,0.0,0.0,76,-99.99,,,-99.99,,2015-09-04 04:54:00,
2015-09-04 01:03:00,82.0,74.0,29.91,South,190,0.0,0.0,76,-99.99,,,-99.99,,2015-09-04 05:03:00,
2015-09-04 01:13:00,82.0,74.0,29.91,South,190,0.0,0.0,76,-99.99,,,-99.99,,2015-09-04 05:13:00,
2015-09-04 01:23:00,82.0,74.0,29.91,South,190,0.0,0.0,76,-99.99,,,-99.99,,2015-09-04 05:23:00,
2015-09-04 01:33:00,82.0,74.0,29.91,South,190,0.0,0.0,76,-99.99,,,-99.99,,2015-09-04 05:33:00,
2015-09-04 01:44:00,82.0,74.0,29.91,South,190,0.0,0.0,76,-99.99,,,-99.99,,2015-09-04 05:44:00,
2015-09-04 01:54:00,82.0,74.0,29.91,South,190,0.0,0.0,76,-99.99,,,-99.99,,2015-09-04 05:54:00,
2015-09-04 02:03:00,82.0,74.0,29.91,South,190,0.0,0.0,76,-99.99,,,-99.99,,2015-09-04 06:03:00,
2015-09-04 02:13:00,82.0,74.0,29.91,South,190,0.0,0.0,76,-99.99,,,-99.99,,2015-09-04 06:13:00,
2015-09-04 02:23:00,82.0,74.0,29.90,South,190,0.0,0.0,77,-99.99,,,-99.99,,2015-09-04 06:23:00,
2015-09-04 02:34:00,81.0,73.0,29.90,South,190,0.0,0.0,77,-99.99,,,-99.99,,2015-09-04 06:34:00,
2015-09-04 02:44:00,81.0,73.0,29.90,South,190,0.0,0.0,77,-99.99,,,-99.99,,2015-09-04 06:44:00,
2015-09-04 02:54:00,81.0,73.0,29.90,South,190,0.0,0.0,77,-99.99,,,-99.99,,2015-09-04 06:54:00,
2015-09-04 03:03:00,81.0,73.0,29.89,South,190,0.0,0.0,77,-99.99,,,-99.99,,2015-09-04 07:03:00,
2015-09-04 03:13:00,81.0,73.0,29.89,South,190,0.0,0.0,77,-99.99,,,-99.99,,2015-09-04 07:13:00,
2015-09-04 03:23:00,81.0,73.0,29.89,South,190,0.0,0.0,77,-99.99,,,-99.99,,2015-09-04 07:23:00,
2015-09-04 03:34:00,81.0,73.0,29.89,South,190,0.0,0.0,77,-99.99,,,-99.99,,2015-09-04 07:34:00,
2015-09-04 03:53:00,81.0,73.0,29.88,South,190,0.0,0.0,78,-99.99,,,-99.99,,2015-09-04 07:53:00,
2015-09-04 04:03:00,81.0,73.0,29.88,South,190,0.0,0.0,78,-99.99,,,-99.99,,2015-09-04 08:03:00,
2015-09-04 04:13:00,81.0,73.0,29.88,South,190,0.0,0.0,78,-99.99,,,-99.99,,2015-09-04 08:13:00,
2015-09-04 04:23:00,81.0,74.0,29.88,South,190,0.0,0.0,79,-99.99,,,-99.99,,2015-09-04 08:23:00,
2015-09-04 04:33:00,81.0,74.0,29.88,South,190,0.0,0.0,79,-99.99,,,-99.99,,2015-09-04 08:33:00,
2015-09-04 04:43:00,81.0,74.0,29.88,South,190,0.0,0.0,79,-99.99,,,-99.99,,2015-09-04 08:43:00,
2015-09-04 04:54:00,81.0,74.0,29.88,South,190,0.0,0.0,79,-99.99,,,-99.99,,2015-09-04 08:54:00,
2015-09-04 05:03:00,81.0,74.0,29.88,South,190,0.0,0.0,80,-99.99,,,-99.99,,2015-09-04 09:03:00,
2015-09-04 05:13:00,81.0,74.0,29.88,South,190,0.0,0.0,80,-99.99,,,-99.99,,2015-09-04 09:13:00,
2015-09-04 05:33:00,80.0,73.0,29.89,South,190,0.0,0.0,80,-99.99,,,-99.99,,2015-09-04 09:33:00,
2015-09-04 05:44:00,80.0,73.0,29.89,South,190,0.0,0.0,80,-99.99,,,-99.99,,2015-09-04 09:44:00,
2015-09-04 05:54:00,80.0,74.0,29.90,South,190,0.0,1.0,81,-99.99,,,-99.99,,2015-09-04 09:54:00,
2015-09-04 06:03:00,80.0,74.0,29.90,South,190,0.0,1.0,81,-99.99,,,-99.99,,2015-09-04 10:03:00,
2015-09-04 06:13:00,80.0,74.0,29.90,South,190,0.0,1.0,81,-99.99,,,-99.99,,2015-09-04 10:13:00,
2015-09-04 06:23:00,80.0,74.0,29.90,South,190,0.0,1.0,81,-99.99,,,-99.99,,2015-09-04 10:23:00,
2015-09-04 06:33:00,80.0,74.0,29.90,South,190,0.0,1.0,81,-99.99,,,-99.99,,2015-09-04 10:33:00,
2015-09-04 06:43:00,80.0,74.0,29.90,South,190,0.0,1.0,81,-99.99,,,-99.99,,2015-09-04 10:43:00,
2015-09-04 06:54:00,80.0,74.0,29.91,South,190,0.0,0.0,82,-99.99,,,-99.99,,2015-09-04 10:54:00,
2015-09-04 07:04:00,80.0,74.0,29.91,South,190,0.0,0.0,83,-99.99,,,-99.99,,2015-09-04 11:04:00,
2015-09-04 07:13:00,80.0,74.0,29.91,South,190,0.0,0.0,83,-99.99,,,-99.99,,2015-09-04 11:13:00,
2015-09-04 07:23:00,80.0,74.0,29.91,South,190,0.0,0.0,83,-99.99,,,-99.99,,2015-09-04 11:23:00,
2015-09-04 07:34:00,80.0,74.0,29.92,South,190,0.0,0.0,83,-99.99,,,-99.99,,2015-09-04 11:34:00,
2015-09-04 07:44:00,80.0,74.0,29.92,South,190,0.0,0.0,83,-99.99,,,-99.99,,2015-09-04 11:44:00,
2015-09-04 07:54:00,80.0,75.0,29.92,South,190,0.0,0.0,84,-99.99,,,-99.99,,2015-09-04 11:54:00,
2015-09-04 08:03:00,80.0,75.0,29.93,South,190,0.0,0.0,84,-99.99,,,-99.99,,2015-09-04 12:03:00,
2015-09-04 08:13:00,80.0,75.0,29.93,South,190,0.0,0.0,84,-99.99,,,-99.99,,2015-09-04 12:13:00,
2015-09-04 08:23:00,80.0,75.0,29.93,South,190,0.0,0.0,84,-99.99,,,-99.99,,2015-09-04 12:23:00,
2015-09-04 08:34:00,80.0,74.0,29.93,South,190,0.0,3.0,83,-99.99,,,-99.99,,2015-09-04 12:34:00,
2015-09-04 08:44:00,80.0,74.0,29.93,South,190,0.0,3.0,83,-99.99,,,-99.99,,2015-09-04 12:44:00,
2015-09-04 08:54:00,81.0,75.0,29.94,South,190,0.0,1.0,82,-99.99,,,-99.99,,2015-09-04 12:54:00,
2015-09-04 09:04:00,81.0,75.0,29.94,South,190,0.0,1.0,82,-99.99,,,-99.99,,2015-09-04 13:04:00,
2015-09-04 09:13:00,81.0,75.0,29.94,South,190,0.0,1.0,82,-99.99,,,-99.99,,2015-09-04 13:13:00,
2015-09-04 09:23:00,82.0,74.0,29.94,South,189,0.0,4.0,77,-99.99,,,-99.99,,2015-09-04 13:23:00,
2015-09-04 09:34:00,83.0,74.0,29.94,East,94,1.0,6.0,75,-99.99,,,-99.99,,2015-09-04 13:34:00,
2015-09-04 09:44:00,83.0,74.0,29.94,East,94,1.0,6.0,75,-99.99,,,-99.99,,2015-09-04 13:44:00,
2015-09-04 09:54:00,84.0,74.0,29.94,NNW,338,1.0,5.0,73,-99.99,,,-99.99,,2015-09-04 13:54:00,
2015-09-04 10:03:00,84.0,74.0,29.95,NW,314,0.0,6.0,73,-99.99,,,-99.99,,2015-09-04 14:03:00,
2015-09-04 10:13:00,84.0,74.0,29.95,NW,314,0.0,6.0,73,-99.99,,,-99.99,,2015-09-04 14:13:00,
2015-09-04 10:23:00,85.0,75.0,29.95,NW,325,0.0,5.0,73,-99.99,,,-99.99,,2015-09-04 14:23:00,
2015-09-04 10:33:00,85.0,75.0,29.95,NNW,348,3.0,9.0,72,-99.99,,,-99.99,,2015-09-04 14:33:00,
2015-09-04 10:43:00,85.0,75.0,29.95,NNW,348,3.0,9.0,72,-99.99,,,-99.99,,2015-09-04 14:43:00,
2015-09-04 10:54:00,85.0,75.0,29.95,NNW,347,2.0,5.0,71,-99.99,,,-99.99,,2015-09-04 14:54:00,
2015-09-04 11:03:00,86.0,76.0,29.96,North,355,1.0,8.0,73,-99.99,,,-99.99,,2015-09-04 15:03:00,
2015-09-04 11:13:00,86.0,76.0,29.96,North,355,1.0,8.0,73,-99.99,,,-99.99,,2015-09-04 15:13:00,
2015-09-04 11:23:00,86.0,76.0,29.96,NNW,348,1.0,9.0,72,-99.99,,,-99.99,,2015-09-04 15:23:00,
2015-09-04 11:33:00,86.0,75.0,29.96,North,349,4.0,8.0,70,-99.99,,,-99.99,,2015-09-04 15:33:00,
2015-09-04 11:44:00,86.0,75.0,29.96,North,349,4.0,8.0,70,-99.99,,,-99.99,,2015-09-04 15:44:00,
2015-09-04 11:54:00,87.0,77.0,29.96,North,349,0.0,3.0,72,-99.99,,,-99.99,,2015-09-04 15:54:00,
2015-09-04 12:04:00,88.0,77.0,29.95,North,351,0.0,3.0,70,-99.99,,,-99.99,,2015-09-04 16:04:00,
2015-09-04 12:13:00,88.0,77.0,29.95,North,351,0.0,3.0,70,-99.99,,,-99.99,,2015-09-04 16:13:00,
2015-09-04 12:24:00,88.0,77.0,29.95,North,351,0.0,5.0,69,-99.99,,,-99.99,,2015-09-04 16:24:00,
2015-09-04 12:34:00,88.0,78.0,29.95,SSW,194,0.0,5.0,73,-99.99,,,-99.99,,2015-09-04 16:34:00,
2015-09-04 12:44:00,88.0,78.0,29.95,SSW,194,0.0,5.0,73,-99.99,,,-99.99,,2015-09-04 16:44:00,
2015-09-04 12:54:00,88.0,79.0,29.95,South,189,0.0,3.0,74,-99.99,,,-99.99,,2015-09-04 16:54:00,
2015-09-04 13:04:00,88.0,79.0,29.94,South,189,0.0,2.0,76,-99.99,,,-99.99,,2015-09-04 17:04:00,
2015-09-04 13:14:00,88.0,79.0,29.94,South,189,0.0,2.0,76,-99.99,,,-99.99,,2015-09-04 17:14:00,
2015-09-04 13:24:00,87.0,78.0,29.93,SW,229,0.0,4.0,74,-99.99,,,-99.99,,2015-09-04 17:24:00,
2015-09-04 13:34:00,88.0,79.0,29.93,SW,229,0.0,2.0,75,-99.99,,,-99.99,,2015-09-04 17:34:00,
2015-09-04 13:44:00,88.0,79.0,29.93,SW,229,0.0,2.0,75,-99.99,,,-99.99,,2015-09-04 17:44:00,
2015-09-04 13:55:00,87.0,78.0,29.93,SW,224,0.0,1.0,75,-99.99,,,-99.99,,2015-09-04 17:55:00,
2015-09-04 14:04:00,87.0,78.0,29.92,SW,224,0.0,1.0,75,-99.99,,,-99.99,,2015-09-04 18:04:00,
2015-09-04 14:13:00,87.0,78.0,29.92,SW,224,0.0,1.0,75,-99.99,,,-99.99,,2015-09-04 18:13:00,
2015-09-04 14:24:00,87.0,78.0,29.91,SW,224,0.0,1.0,76,-99.99,,,-99.99,,2015-09-04 18:24:00,
2015-09-04 14:34:00,87.0,78.0,29.91,SSW,202,2.0,5.0,75,-99.99,,,-99.99,,2015-09-04 18:34:00,
2015-09-04 14:44:00,87.0,78.0,29.91,SSW,202,2.0,5.0,75,-99.99,,,-99.99,,2015-09-04 18:44:00,
2015-09-04 14:55:00,87.0,79.0,29.91,SSW,202,0.0,7.0,77,-99.99,,,-99.99,,2015-09-04 18:55:00,
2015-09-04 15:04:00,87.0,78.0,29.91,South,172,0.0,6.0,76,-99.99,,,-99.99,,2015-09-04 19:04:00,
2015-09-04 15:13:00,87.0,78.0,29.91,South,172,0.0,6.0,76,-99.99,,,-99.99,,2015-09-04 19:13:00,
2015-09-04 15:24:00,87.0,78.0,29.90,South,172,0.0,5.0,76,-99.99,,,-99.99,,2015-09-04 19:24:00,